Погода в Пскове

Погода в Пскове : погода сейчас, прогноз погоды и архив. Всё, что Вы хотите узнать о погоде в Пскове!

Хотите узнать прогноз погоды в Пскове? Тогда Вам сюда: Погода в Пскове

Поиск расширенной информации на нашем сайте:

Другие новости

Новости СМИ2

Главная страница сайта

Новости сайта

02.10.2013

Напоминаем, что на нашем новом сайте вы можете получить высокодетализированные прогнозы погоды по пунктам России, СНГ и мира (включающие важные для авиации метеовеличины, такие как направление и скорость ветра, видимость, явления погоды, количество и форма облачности, нижняя и верхняя граница облачности), а также ознакомиться с разнообразными материалами по авиационной метеорологии и подборкой полезных ссылок на эту тему.

Сайт Метеоцентр.Азия посвящён разработке технологий оптимизации авиаметеорологического обслуживания, включая проектирование и перспективное создание нескольких автоматизированных авиаметеорологических систем:
- система выпуска высокодетальных прогностических карт явлений погоды для нижнего воздушного пространства по России и ближнему зарубежью;
- система верификации прогнозов TAF (выпускаемых синоптиками официальных АМСГ РФ и ближнего зарубежья) и AUTOTAF (выпускаемых сайтом Метеоцентр.Азия) - выявление ошибок, онлайн-сопоставление с фактической погодой METAR, автоматическое внесение коррективов в прогнозы при резком отклонении фактической погоды от прогноза, подсчёт оправдываемости прогнозов по элементам и в целом;
- система обработки, анализа и отображения авиаметеорологической информации для применения провайдерами метеорологической информации.


Погода в Пскове - сегодня

Время (UTC), дата Ветер
(°,м/с) 
Видим.   Явления Облачность Т
(°С)
Тd
(°С)
f(%) Тe
(°С)
Pmin
(гПа)
dP
(гПа)
Po
(мм)
O2
(г/м3)
Тmin Tmax R s Состояние
почвы
09 25.05.17 300 (СЗ) 20000 м  в посл. час ливневой дождь  10/10 600 м кучево-дожд. 
[Cb cap]
+11.4 +9.8 90 +12  1011.1  0.7  754  290           
12 25.05.17 300 (СЗ) 20000 м  {ливн. осадки}  8/8 600 м кучево-дожд. 
[Cb cap]
+16.7 +9.4 62 +18  1010.9  -0.2  754  285           
15 25.05.17 250 (З) 20000 м    8/6 600 м кучево-дожд., средняя 
[Cb cap|Ac cast]
+18.3 +8.2 52 +20  1009.8  -1  753  283         
18 25.05.17 210 (ЮЗ) 20000 м    6/4 600 м кучево-дожд., средняя 
[Cb cap|Ac cast]
+14.1 +8.2 68 +15  1009.3  -0.5  753  287    +20  0.5     
21 25.05.17 250 (З) 20000 м    10/10 600 м кучево-дожд. 
[Cb cap]
+13 +9.7 80 +15  1009.1  -0.2  753  288           
00 26.05.17 300 (СЗ) 10 км  слаб. ливневой дождь  10/10 600 м кучево-дожд. 
[Cb cap]
+12 +7.1 72 +12  1010  0.8  754  290           
03 26.05.17 290 (З) 20000 м    3/0 верхняя 
[Ci fib]
+9.8 +6.7 81 +9  1010.7  0.6  754  292  +9.1         
06 26.05.17 310 (СЗ) 20000 м  {ливн. осадки}  10/10 600 м 
[Sc]
+11.6 +7.4 75 +12  1012  1.3  755  291  +9.1    0.0    влажная 
09 26.05.17 320 (СЗ) 20000 м    6/6 600 м 
[Cu hum]
+13.7 +7.9 68 +14  1013.6  1.7  756  289           
12 26.05.17 320 (СЗ) 20000 м    6/6 600 м 
[Cu Sc]
+17.6 +6.2 47 +18  1013.5  756  285           
15 26.05.17 310 (СЗ) 20000 м    8/5 600 м верхняя 
[Cu Sc|Ci fib]
+18.1 +2.2 34 +18  1013.5  756  285           
21 26.05.17 290 (З) 20000 м    3/3 600 м 
[Sc]
+11 +6.2 72 +12  1015.8  1.4  758  293           
00 27.05.17 тихо ()   20000 м    5/5 600 м 
[Sc]
+6.9 +5.5 91 +7  1016.9  759  297           
03 27.05.17 тихо ()   20000 м  в посл. час ливневой дождь  5/3 600 м кучево-дожд., верхняя 
[Cb cap|Ci fib]
+9.8 +9 95 +10  1017.6  759  294  +6.5       
06 27.05.17 290 (З) 20000 м  {ливн. осадки}  5/3 600 м средняя 
[Cu hum|Ac trans]
+14.1 +9 71 +15  1018.6  1.1  760  290  +6.5        влажная 
09 27.05.17 330 (СЗ) н/о    н/о 
+17.8 +3.3 38 +18  1018.9  0.3  760  287           
12 27.05.17 340 (С) н/о    н/о 
+17.9 +1.9 34 +18  1018.4  -0.4  760  287           
15 27.05.17 340 (С) 20000 м    9/8 600 м кучево-дожд., средняя 
[Cb cap|Ac trans]
+16.5 +0.8 34 +17  1017.7  -0.7  759  288           
21 27.05.17 280 (З) 20000 м  {ливн. осадки}  9/8 600 м кучево-дожд., средняя 
[Cb cap|Ac trans]
+12.9 +5.6 61 +13  1017.3  0.2  759  291           
03 28.05.17 070 (В) 20000 м    10/10 600 м 
[Sc diur, vesp]
+11.9 +8 77 +12  1017.3  0.8  759  292  +9         
09 28.05.17 130 (ЮВ) 20000 м    8/4 600 м верхняя 
[Sc diur, vesp|Ci fib]
+16.5 +6.6 52 +17  1017.6  -0.7  759  287           
15 28.05.17 210 (ЮЗ) 20000 м    6/0 верхняя 
[Ci fib]
+24.3 +12.6 48 +29  1011.1  -4.2  755  277      0.0     
21 28.05.17 250 (З) 20000 м    10/10 600 м 
[Sc diur, vesp]
+18.6 +9.8 57 +21  1008.5  -0.8  752  282           
00 29.05.17 240 (ЮЗ) 20000 м    8/8 600 м 
[Sc diur, vesp]
+17.8 +9 56 +18  1006.2  -2.4  751  282           
03 29.05.17 250 (З) 10 км  слаб. ливневой дождь  10/10 600 м кучево-дожд. 
[Cb calv]
+17.1 +9.7 62 +18  1004.2  -2  749  282  +16.9    0.0     
Время (UTC), дата Ветер
(°,м/с) 
Видим.   Явления Облачность Т
(°С)
Тd
(°С)
f(%) Тe
(°С)
Pmin
(гПа)
dP
(гПа)
Po
(мм)
O2
(г/м3)
Тmin Tmax R s Состояние
почвы

Для получения пояснительной информации подведите курсор к названию столбца.

ПОГОДА в Пскове - архив

Всё, что Вы хотите узнать о погоде в Пскове - удобно и подробно!

Выберите нужную дату (начиная с 1 января 2015* года) и нажмите кнопку "Найти".
Будут отображены архивные сводки погоды по пункту Псков, начиная с указанной даты.


Отображать данные в формате CSV (для использования в таблицах Excel)


Внимание! Наш архив погоды предназначен исключительно для личного некоммерческого использования в познавательных целях. Если Вам необходимы официальные справки о состоянии погоды (для производственных, юридических, коммерческих и т.п. целей), обращайтесь в органы Росгидромета.

*Примечание: данная дата относится к архиву по метеостанциям СССР (Россия, СНГ, Балтия).
Архив по метеостанциям Зарубежной Европы и Азии (кроме Китая) хранится 10 дней, по другим регионам земного шара (Китай, Африка, Америка, Австралия, Океания) - 1 день.

Псков - район местоположения метеостанции


Название, широта, долгота, высота метеостанции:
Псков (город) 57.8°ш. 28.5°д. 44 м над ур. моря [Российская Федерация]

Дополнительная информация

В oтличие oт бoльшинства пoгoдных сайтoв мы публикуем пoдрoбную метеoинфoрмацию в детальнoм прoфессиoнальнoм фoрмате.

Характеристики температуры и влажнoсти вoздуха измеряются на высoте 2 м в тени вдали oт зданий и деревьев.
Скoрoсть ветра измеряется на высoте 10 м (на урoвне рoста челoвека скoрoсть ветра ниже в 1.5-2 раза). Если метеoстанция нахoдится в гoрoде или в лесу, тo скoрoсть ветра занижена на 2-4 м/с пo сравнению с oткрытым местoм. Скoрoсть ветра над акватoриями крупных рек и oзёр, а также на вершинах хoлмoв на 2-5 м/с выше, чем в oбычных услoвиях.
Атмoсфернoе давление в разных тoчках местнoсти мoжет значительнo oтличаться oт давления на метеoстанции, в зависимoсти oт услoвий рельефа (при пoдъёме на 10 м давление пoнижается примернo на 1 мм рт.ст.).